Location: Wiesbaden
(50.0830°N, 8.2500°E)
Time: 17:15:33
(UTC+02:00)

ISS - Visible Passes

Search period start: 25 September 2022 00:00
Search period end: 05 October 2022 00:00
Orbit: 414 x 417 km, 51.6° (Epoch: 25 September)

Date Brightness Start Highest point End Pass type
(mag) Time Alt. Az. Time Alt. Az. Time Alt. Az.
25 Sep -3.6 20:33:06 10° W 20:36:28 65° N 20:38:20 24° E visible
25 Sep -1.3 22:09:54 10° WNW 22:11:13 22° W 22:11:13 22° W visible
26 Sep -3.5 19:44:25 10° W 19:47:46 65° N 19:51:07 10° E visible
26 Sep -3.7 21:21:15 10° WNW 21:24:22 75° W 21:24:22 75° W visible
27 Sep -3.8 20:32:34 10° WNW 20:35:56 79° NNE 20:37:32 29° E visible
27 Sep -1.0 22:09:26 10° W 22:10:25 17° W 22:10:25 17° W visible
28 Sep -3.6 19:43:52 10° WNW 19:47:13 69° N 19:50:35 10° E visible
28 Sep -3.0 21:20:39 10° WNW 21:23:35 46° SW 21:23:35 46° SW visible
29 Sep -3.6 20:31:55 10° WNW 20:35:16 67° SSW 20:36:46 29° SE visible
29 Sep -0.6 22:09:17 10° W 22:09:39 12° WSW 22:09:39 12° WSW visible
30 Sep -3.7 19:43:11 10° WNW 19:46:33 87° SSW 19:49:55 10° ESE visible
30 Sep -2.0 21:20:11 10° W 21:22:53 25° SW 21:22:53 25° SW visible
01 Oct -2.6 20:31:17 10° W 20:34:24 36° SSW 20:36:09 20° SSE visible
02 Oct -3.1 19:42:27 10° WNW 19:45:43 51° SSW 19:48:59 10° SE visible
02 Oct -1.0 21:20:30 10° WSW 21:21:51 12° SW 21:22:23 12° SW visible
03 Oct -1.3 20:30:55 10° W 20:33:18 18° SW 20:35:40 10° S visible
04 Oct -1.8 19:41:49 10° W 19:44:41 26° SW 19:47:33 10° SSE visible
